Location: Unspecified
(0.0000°N, 0.0000°E)
Time: 07:59:45
(UTC+00:00)

Envisat - Pass Details

Date: 22 July 2021
Orbit: 764 x 766 km, 98.2° (Epoch: 31 July)

Event Time Altitude Azimuth Distance (km) Brightness Sun altitude
Rises 04:27:45 0° 25° (NNE) 3,213 6.9 -23.1°
Reaches altitude 10° 04:30:09 10° 32° (NNE) 2,290 6.2 -22.5°
Maximum altitude 04:34:54 42° 102° (ESE) 1,088 4.2 -21.4°
Drops below altitude 10° 04:39:39 10° 172° (S) 2,300 5.3 -20.3°
Sets 04:42:04 0° 179° (S) 3,229 6.0 -19.8°
